Weather History for Kimball, NE

Change the Weather History Date:

Wednesday, July 11, 2012

  Actual Average (KSNY) Record (KSNY)
Temperature  
Mean Temperature 72 °F 75 °F  
Max Temperature 87 °F 91 °F 107 °F (1954)
Min Temperature 56 °F 60 °F 47 °F (1951)
Degree Days  
Heating Degree Days 0 0  
Month to date heating degree days 0  
Since 1 June heating degree days 59  
Since 1 July heating degree days 0  
Cooling Degree Days 6 10  
Month to date cooling degree days 103  
Year to date cooling degree days 262  
Since 1 June cooling degree days 240  
Growing Degree Days 22 (Base 50)    
Moisture  
Dew Point 49 °F    
Average Humidity 49    
Maximum Humidity 89    
Minimum Humidity 21    
Precipitation  
Precipitation 0.00 in 0.09 in 1.21 in (2011)
Month to date precipitation 1.00  
Year to date precipitation 10.94  
Sea Level Pressure  
Sea Level Pressure 30.18 in    
Wind  
Wind Speed 10 mph (SSE)    
Max Wind Speed 20 mph    
Max Gust Speed 29 mph    
Visibility 10 miles    
Events Thunderstorm    
T = Trace of Precipitation, MM = Missing Value Source: NWS Daily Summary

Daily Weather History Graph

Daily Weather History Graph

Search for Another Location

Airport:

Trip Planner

Search our weather history database for the weather conditions in past years. The results will help you decide how hot, cold, wet, or windy it might be!

Date:

Astronomy

Jul. 11, 2012 Rise Set
Actual Time 6:32 AM CDT 9:27 PM CDT
Civil Twilight 5:59 AM CDT 10:00 PM CDT
Nautical Twilight 5:17 AM CDT 10:42 PM CDT
Astronomical Twilight 4:28 AM CDT 11:30 PM CDT
Moon 1:09 AM CDT (7/11) 3:03 PM CDT (7/11)
Length of Visible Light 16h 01m
Length of Day
14h 55m
Last Quarter, 44% of the Moon is Illuminated
Jul 11
Last Quarter
Jul 18
New
Jul 26
First Quarter
Aug 1
Full
Aug 9
Last Quarter

Hourly Weather History & Observations

Time (CDT) Temp. Dew Point Humidity Pressure Visibility Wind Dir Wind Speed Gust Speed Precip Events Conditions
12:15 AM 63.5 °F 49.6 °F 61% 30.25 in 10.0 mi South 9.2 mph - N/A   Clear
12:35 AM 63.5 °F 49.6 °F 61% 30.25 in 10.0 mi South 10.4 mph - N/A   Clear
12:55 AM 62.6 °F 50.0 °F 63% 30.25 in 10.0 mi South 8.1 mph - N/A   Clear
1:15 AM 61.9 °F 50.0 °F 65% 30.24 in 10.0 mi South 9.2 mph - N/A   Clear
1:35 AM 62.4 °F 50.2 °F 64% 30.24 in 10.0 mi South 10.4 mph - N/A   Clear
1:55 AM 63.0 °F 50.5 °F 64% 30.23 in 10.0 mi SSE 11.5 mph - N/A   Clear
2:15 AM 62.1 °F 50.9 °F 67% 30.23 in 10.0 mi SSE 11.5 mph - N/A   Clear
2:35 AM 61.9 °F 51.1 °F 68% 30.23 in 10.0 mi South 11.5 mph - N/A   Clear
2:55 AM 61.9 °F 51.4 °F 69% 30.22 in 10.0 mi SSE 11.5 mph - N/A   Clear
3:15 AM 61.7 °F 52.2 °F 71% 30.21 in 10.0 mi SSE 12.7 mph - N/A   Clear
3:35 AM 61.7 °F 52.7 °F 72% 30.22 in 10.0 mi South 11.5 mph - N/A   Clear
3:55 AM 61.0 °F 52.7 °F 74% 30.22 in 10.0 mi South 10.4 mph - N/A   Clear
4:15 AM 60.3 °F 52.9 °F 77% 30.21 in 10.0 mi South 10.4 mph - N/A   Clear
4:35 AM 59.4 °F 53.1 °F 80% 30.20 in 10.0 mi SSE 9.2 mph - N/A   Clear
5:15 AM 57.9 °F 52.9 °F 83% 30.20 in 10.0 mi SSE 5.8 mph - N/A   Clear
5:35 AM 57.4 °F 52.9 °F 85% 30.20 in 10.0 mi South 6.9 mph - N/A   Clear
5:55 AM 57.2 °F 53.1 °F 86% 30.20 in 10.0 mi SSE 6.9 mph - N/A   Clear
6:15 AM 57.0 °F 53.2 °F 87% 30.21 in 10.0 mi South 3.5 mph - N/A   Clear
6:35 AM 56.3 °F 53.1 °F 89% 30.21 in 10.0 mi SSE 5.8 mph - N/A   Clear
6:55 AM 56.8 °F 53.8 °F 89% 30.20 in 10.0 mi SSE 8.1 mph - N/A   Clear
7:15 AM 58.6 °F 54.5 °F 86% 30.20 in 10.0 mi SSE 6.9 mph - N/A   Clear
7:35 AM 60.6 °F 55.4 °F 83% 30.20 in 10.0 mi South 6.9 mph - N/A   Clear
7:55 AM 63.0 °F 56.3 °F 79% 30.21 in 10.0 mi South 9.2 mph - N/A   Clear
8:15 AM 64.9 °F 56.5 °F 74% 30.20 in 10.0 mi South 11.5 mph - N/A   Clear
8:35 AM 66.7 °F 56.5 °F 70% 30.20 in 10.0 mi South 10.4 mph 17.3 mph N/A   Clear
8:55 AM 68.9 °F 56.8 °F 65% 30.20 in 10.0 mi South 12.7 mph - N/A   Clear
9:15 AM 70.2 °F 55.8 °F 60% 30.20 in 10.0 mi SSW 17.3 mph - N/A   Clear
9:35 AM 71.6 °F 55.6 °F 57% 30.20 in 10.0 mi SSW 15.0 mph 23.0 mph N/A   Clear
9:55 AM 72.7 °F 55.6 °F 55% 30.21 in 10.0 mi SSW 18.4 mph - N/A   Clear
10:15 AM 74.1 °F 55.4 °F 52% 30.21 in 10.0 mi SSW 17.3 mph 21.9 mph N/A   Clear
10:35 AM 74.7 °F 54.7 °F 50% 30.21 in 10.0 mi South 17.3 mph 25.3 mph N/A   Clear
10:55 AM 76.1 °F 54.5 °F 47% 30.20 in 10.0 mi South 16.1 mph 23.0 mph N/A   Clear
11:15 AM 77.7 °F 52.7 °F 42% 30.19 in 10.0 mi SSW 16.1 mph 26.5 mph N/A   Clear
11:35 AM 79.3 °F 52.7 °F 39% 30.19 in 10.0 mi South 19.6 mph 24.2 mph N/A   Clear
11:55 AM 80.4 °F 50.5 °F 35% 30.19 in 10.0 mi South 17.3 mph - N/A   Clear
12:15 PM 81.3 °F 49.5 °F 33% 30.19 in 10.0 mi South 15.0 mph 23.0 mph N/A   Clear
12:35 PM 82.0 °F 47.3 °F 30% 30.19 in 10.0 mi South 12.7 mph 20.7 mph N/A   Clear
12:55 PM 82.4 °F 46.4 °F 28% 30.19 in 10.0 mi South 15.0 mph 20.7 mph N/A   Clear
1:15 PM 83.5 °F 45.0 °F 26% 30.19 in 10.0 mi SSE 13.8 mph 25.3 mph N/A   Clear
1:35 PM 83.3 °F 42.6 °F 24% 30.18 in 10.0 mi South 10.4 mph - N/A   Clear
1:55 PM 84.4 °F 44.1 °F 24% 30.17 in 10.0 mi SSW 6.9 mph 17.3 mph N/A   Clear
2:15 PM 84.6 °F 45.0 °F 25% 30.17 in 10.0 mi South 10.4 mph 20.7 mph N/A   Clear
2:35 PM 85.5 °F 44.6 °F 24% 30.16 in 10.0 mi SSE 9.2 mph 18.4 mph N/A   Clear
2:55 PM 85.8 °F 44.1 °F 23% 30.15 in 10.0 mi SSE 11.5 mph 17.3 mph N/A   Clear
3:15 PM 86.4 °F 43.7 °F 22% 30.15 in 10.0 mi SE 8.1 mph 20.7 mph N/A   Clear
3:35 PM 86.2 °F 42.6 °F 22% 30.15 in 10.0 mi SSE 8.1 mph 17.3 mph N/A   Clear
3:55 PM 87.4 °F 43.3 °F 21% 30.14 in 10.0 mi SE 10.4 mph - N/A   Clear
4:15 PM 86.2 °F 43.5 °F 22% 30.14 in 10.0 mi SSE 4.6 mph - N/A   Clear
4:35 PM 87.1 °F 43.2 °F 21% 30.14 in 10.0 mi SE 8.1 mph - N/A   Clear
4:55 PM 87.6 °F 43.3 °F 21% 30.13 in 10.0 mi SSE 15.0 mph - N/A   Clear
5:15 PM 86.9 °F 43.5 °F 22% 30.13 in 10.0 mi SSE 11.5 mph - N/A   Clear
5:35 PM 87.3 °F 43.7 °F 22% 30.12 in 10.0 mi SSE 10.4 mph - N/A   Clear
5:55 PM 86.0 °F 43.5 °F 23% 30.11 in 10.0 mi SSE 11.5 mph 17.3 mph N/A   Clear
6:15 PM 87.8 °F 43.3 °F 21% 30.11 in 10.0 mi SSE 10.4 mph - N/A   Clear
6:55 PM 86.4 °F 43.2 °F 22% 30.09 in 10.0 mi SE 13.8 mph 18.4 mph N/A   Clear
7:15 PM 86.5 °F 44.2 °F 23% 30.10 in 10.0 mi SSE 12.7 mph - N/A   Clear
7:35 PM 85.6 °F 44.1 °F 23% 30.10 in 10.0 mi SSE 10.4 mph - N/A   Clear
7:55 PM 84.4 °F 43.2 °F 23% 30.10 in 10.0 mi SSE 12.7 mph - N/A   Clear
8:15 PM 80.8 °F 44.1 °F 27% 30.09 in 10.0 mi SE 10.4 mph - N/A   Clear
8:35 PM 78.8 °F 45.3 °F 31% 30.09 in 10.0 mi SSE 9.2 mph - N/A   Clear
8:55 PM 77.7 °F 46.4 °F 33% 30.09 in 10.0 mi SSE 9.2 mph - N/A   Clear
9:15 PM 75.7 °F 47.3 °F 36% 30.10 in 10.0 mi SSE 9.2 mph - N/A Thunderstorm Clear
9:35 PM 71.8 °F 49.5 °F 45% 30.11 in 10.0 mi SE 5.8 mph - N/A   Clear
9:55 PM 70.9 °F 50.2 °F 48% 30.12 in 10.0 mi SSE 5.8 mph - N/A   Clear
10:15 PM 70.7 °F 50.4 °F 48% 30.12 in 10.0 mi SSE 6.9 mph - N/A   Clear
10:35 PM 72.0 °F 49.3 °F 45% 30.14 in 10.0 mi SSE 8.1 mph - N/A   Clear
10:55 PM 71.6 °F 49.6 °F 46% 30.16 in 10.0 mi SSE 6.9 mph - N/A Thunderstorm Clear
11:15 PM 72.5 °F 49.1 °F 44% 30.17 in 10.0 mi SSE 6.9 mph - N/A   Clear
11:35 PM 72.1 °F 49.5 °F 45% 30.19 in 10.0 mi Calm Calm - N/A Thunderstorm Thunderstorm
11:55 PM 72.7 °F 48.9 °F 43% 30.22 in 10.0 mi NNW 19.6 mph 28.8 mph N/A   Scattered Clouds